Agadir Al Massira, Morocco

5:11 PM WEST on August 16, 2017 (GMT +0100)
Agadir Al Massira

Weather History for GMAD - September, 2012

Change the Weather History Date:

Thursday, September 6, 2012

  Actual Average Record
Temperature  
Mean Temperature 71 °F -  
Max Temperature 82 °F - - ()
Min Temperature 60 °F - - ()
Cooling Degree Days 6    
Growing Degree Days 21 (Base 50)    
Moisture  
Dew Point 60 °F    
Average Humidity 65    
Maximum Humidity 88    
Minimum Humidity 31    
Precipitation  
Precipitation 0.00 in - - ()
Sea Level Pressure  
Sea Level Pressure 29.98 in    
Wind  
Wind Speed 4 mph ()    
Max Wind Speed 17 mph    
Max Gust Speed -    
Visibility 5.4 miles    
Events      
T = Trace of Precipitation, MM = Missing Value Source: Averaged Metar Reports

Daily Weather History Graph

Daily Weather History Graph

Search for Another Location

Airport or City:

Trip Planner

Search our weather history database for the weather conditions in past years. The results will help you decide how hot, cold, wet, or windy it might be!

Date:

Astronomy

Sep. 06, 2012 Rise Set
Actual Time 7:17 AM WEST 7:53 PM WEST
Civil Twilight 6:53 AM WEST 8:18 PM WEST
Nautical Twilight 6:24 AM WEST 8:46 PM WEST
Astronomical Twilight 5:55 AM WEST 9:15 PM WEST
Moon 11:23 PM WEST (9/6) 12:36 PM WEST (9/6)
Length of Visible Light 13h 25m
Length of Day
12h 36m
Waning Gibbous, 69% of the Moon is Illuminated
Sep 6
Waning Gibbous
Sep 8
Last Quarter
Sep 16
New
Sep 22
First Quarter
Sep 30
Full

Hourly Weather History & Observations

Time (WEST) Temp. Heat Index Dew Point Humidity Pressure Visibility Wind Dir Wind Speed Gust Speed Precip Events Conditions
12:00 AM 69.8 °F - 60.8 °F 73% 29.95 in 3.7 mi Variable 2.3 mph - N/A   Mostly Cloudy
1:00 AM 70 °F - 62 °F 69% 29.96 in 4 mi NE 3.5 mph - -   Overcast
1:00 AM 69.8 °F - 62.6 °F 78% 29.95 in 3.7 mi NE 3.5 mph - N/A   Mostly Cloudy
2:00 AM 69.8 °F - 60.8 °F 73% 29.95 in 3.7 mi Variable 2.3 mph - N/A   Mostly Cloudy
4:00 AM 66 °F - 60 °F 74% 29.94 in 5 mi SSE 3.5 mph - -   Mostly Cloudy
4:00 AM 68.0 °F - 59.0 °F 73% 29.95 in - SE 3.5 mph - N/A   Mostly Cloudy
5:00 AM 66.2 °F - 59.0 °F 78% 29.95 in 5.0 mi Calm Calm - N/A   Scattered Clouds
6:00 AM 62.6 °F - 57.2 °F 82% 29.98 in 5.0 mi Calm Calm - N/A   Partly Cloudy
7:00 AM 62 °F - 56 °F 77% 29.97 in 6 mi Calm Calm - -   Scattered Clouds
7:00 AM 60.8 °F - 55.4 °F 82% 29.95 in 6.2 mi Calm Calm - N/A   Partly Cloudy
8:00 AM 62.6 °F - 59.0 °F 88% 29.98 in 6.2 mi Calm Calm - N/A   Partly Cloudy
9:00 AM 68.0 °F - 60.8 °F 78% 29.98 in 6.2 mi Calm Calm - N/A   Unknown
10:00 AM 73 °F - 60 °F 55% 30.00 in 6 mi ESE 1.2 mph - -   Scattered Clouds
10:00 AM 73.4 °F - 60.8 °F 65% 30.01 in 6.2 mi Variable 1.2 mph - N/A   Partly Cloudy
11:00 AM - - - N/A% 0.00 in - North - - N/A   Partly Cloudy
12:00 PM 77.0 °F - 57.2 °F 50% 30.01 in 6.2 mi Variable 3.5 mph - N/A   Partly Cloudy
1:00 PM 81 °F - 55 °F 31% 29.99 in 6 mi WSW 5.8 mph - -   Scattered Clouds
1:00 PM 80.6 °F 80.5 °F 55.4 °F 42% 29.98 in - Variable 5.8 mph - N/A   Clear
2:00 PM 80.6 °F 81.1 °F 59.0 °F 48% 29.98 in - West 13.8 mph - N/A   Clear
3:00 PM 80.6 °F 81.1 °F 59.0 °F 48% 29.98 in - West 12.7 mph - N/A   Clear
4:00 PM 80 °F - 59 °F 38% 29.97 in 6 mi West 17.3 mph - -   Clear
4:00 PM 80.6 °F 81.1 °F 59.0 °F 48% 29.98 in - West 17.3 mph - N/A   Clear
5:00 PM 78.8 °F - 59.0 °F 51% 29.95 in - West 15.0 mph - N/A   Clear
6:00 PM 77.0 °F - 60.8 °F 57% 29.98 in - West 13.8 mph - N/A   Clear
7:00 PM 75 °F - 61 °F 52% 29.97 in 6 mi West 12.7 mph - -   Clear
7:00 PM 75.2 °F - 60.8 °F 61% 29.98 in - West 12.7 mph - N/A   Clear
8:00 PM 71.6 °F - 62.6 °F 73% 29.98 in - WSW 8.1 mph - N/A   Clear
9:00 PM 69.8 °F - 62.6 °F 78% 30.01 in - SW 5.8 mph - N/A   Clear
10:00 PM 68 °F - 62 °F 74% 30.04 in 6 mi Calm Calm - -   Clear
10:00 PM 68.0 °F - 62.6 °F 83% 30.04 in - Calm Calm - N/A   Clear
11:00 PM 68.0 °F - 60.8 °F 78% 30.04 in 5.0 mi Calm Calm - N/A   Scattered Clouds